#timestamp,LO_Frequency,Hit,StdDev 
1634932815.7,286046999.4,N
1634932835.6,286046999.1,N
1634932855.4,286046997.3,N
1634932875.2,286046995.9,N
1634932895.1,286046995.2,N
1634932896.0,286046995.2,N
1634932915.8,286046996.6,N
1634932935.7,286046997.4,N
1634932955.5,286046997.5,N
1634932975.3,286046996.4,N
1634932995.2,286046996.3,N
1634933015.0,286046995.7,N
1634933015.9,286046995.7,N
1634933035.7,286046996.3,N
1634933055.6,286046995.9,N
1634933075.4,286046995.3,N
1634933095.3,286046995.9,N
1634933115.1,286046993.3,N
1634933116.0,286046993.3,N
1634933135.8,286046995.1,N
1634933155.7,286046997.3,N
1634933175.5,286046997.3,N
1634933195.3,286046997.6,N
1634933215.2,286046997.9,N
1634933235.0,286046997.1,N
1634933235.9,286046997.1,N
1634933255.8,286046996.9,N
1634933275.6,286046999.2,N
1634933295.5,286046997.1,N
1634933315.3,286046998.0,N
1634933335.1,286046994.9,Y
1634933355.9,286046996.6,P
1634933375.7,286046995.3,P
1634933395.5,286046997.4,P
1634933415.4,286046997.2,Y
1634933435.2,286046998.6,P
1634933455.1,286046998.1,N
1634933456.0,286046998.1,N
1634933475.8,286047001.2,N
1634933495.6,286047000.7,N
1634933515.5,286047002.7,N
1634933535.3,286046999.7,N
1634933555.2,286047002.4,N
1634933575.9,286047001.5,N
1634933595.7,286047002.0,N
1634933615.6,286047001.5,N
1634933635.4,286047000.1,N
1634933655.2,286047000.1,N
1634933675.1,286047000.6,N
1634933676.0,286047000.6,N
1634933695.8,286047000.6,N
1634933715.7,286046999.9,N
1634933735.5,286046999.9,N
1634933755.3,286046999.9,N
1634933775.2,286047001.9,N
1634933795.0,286046999.7,N
1634933795.9,286046999.7,N
1634933815.8,286047000.9,N
1634933835.6,286046999.0,N
1634933855.4,286046999.3,N
1634933875.3,286046998.3,N
1634933895.1,286046999.0,N
1634933915.9,286046999.3,N
1634933935.7,286046996.8,N
1634933955.5,286046999.6,N
1634933975.4,286046996.7,N
1634933995.2,286046996.6,N
1634934015.0,286046999.5,N
1634934015.9,286046999.5,N
1634934035.8,286046997.1,N
1634934055.6,286046998.6,N
1634934075.5,286046999.9,N
1634934095.3,286047000.8,N
1634934115.1,286047000.8,N
1634934135.9,286046998.6,N
1634934155.7,286047000.9,N
1634934175.5,286046998.9,N
1634934195.4,286046999.3,N
1634934215.2,286046998.4,N
1634934235.0,286047001.1,N
1634934236.0,286047001.1,N
1634934255.8,286047001.1,N
1634934275.6,286047000.8,N
1634934295.5,286047001.1,N
1634934315.3,286046998.2,N
1634934335.1,286046999.6,N
1634934355.9,286046997.1,N
1634934375.7,286046996.8,N
1634934395.5,286046999.3,N
1634934415.4,286046999.6,N
1634934435.2,286046997.1,N
1634934455.1,286046996.5,N
1634934456.0,286046996.5,N
1634934475.8,286046996.9,N
1634934495.6,286046999.3,N
1634934515.5,286046998.7,N
1634934535.3,286046998.5,N
1634934555.1,286047000.8,N
1634934575.9,286047001.1,N
1634934595.7,286047000.8,N
1634934615.6,286047000.4,N
1634934635.4,286046998.3,N
1634934655.2,286046999.6,N
1634934675.1,286046999.0,N
1634934676.0,286046999.0,N
1634934695.8,286046999.4,N
1634934715.7,286046999.1,N
1634934735.5,286046996.5,N
1634934755.3,286046998.9,N
1634934775.2,286046999.3,N
1634934795.0,286046998.4,N
1634934795.9,286046998.4,N
1634934815.8,286046996.8,N
1634934835.6,286046997.7,N
1634934855.4,286046999.1,N
1634934875.3,286046996.9,N
1634934895.1,286046996.5,N
1634934915.8,286046996.8,N
1634934935.7,286046997.0,N
1634934955.5,286046999.5,N
1634934975.4,286046996.6,N
1634934995.2,286046997.1,N
1634935015.0,286046997.9,N
1634935015.9,286046997.9,N
1634935035.8,286046997.5,N
1634935055.6,286046998.0,N
1634935075.5,286046995.5,Y
1634935095.3,286046999.4,P
1634935115.1,286046996.7,P
1634935135.9,286046998.4,N
1634935155.7,286046998.4,N
1634935175.5,286046998.1,N
1634935195.4,286047000.2,N
1634935215.2,286047002.8,N
1634935235.1,286047002.5,N
1634935236.0,286047002.5,N
1634935255.8,286047000.2,N
1634935275.6,286047000.2,N
1634935295.5,286046999.7,N
1634935315.3,286046999.9,N
1634935335.1,286047002.4,N
1634935355.9,286047002.1,N
1634935375.7,286046999.8,N
1634935395.6,286046998.9,N
1634935415.4,286046998.4,N
1634935435.2,286046998.2,N
1634935455.1,286047000.3,N
1634935456.0,286047000.3,N
1634935475.8,286047000.1,N
1634935495.6,286047000.7,N
1634935515.5,286046998.7,N
1634935535.3,286046998.2,N
1634935555.2,286046999.3,N
1634935575.9,286047001.2,N
1634935595.7,286047000.3,N
1634935615.6,286046999.7,N
1634935635.4,286047002.1,N
1634935655.2,286047000.2,N
1634935675.1,286047002.6,N
1634935676.0,286047002.6,N
1634935695.8,286047002.0,N
1634935715.7,286047001.5,N
1634935735.5,286047004.0,N
1634935755.3,286047003.7,N
1634935775.2,286047003.7,N
1634935795.0,286047002.9,N
1634935795.9,286047002.9,N
1634935815.8,286047001.3,N
1634935835.6,286047003.8,N
1634935855.4,286047003.6,N
1634935875.3,286047003.8,N
1634935895.1,286047003.5,N
1634935915.8,286047003.0,N
1634935935.7,286047001.3,N
1634935955.5,286047001.8,N
1634935975.4,286047004.2,N
1634935995.2,286047004.4,N
1634936015.0,286047002.1,N
1634936015.9,286047002.1,N
1634936035.8,286047001.4,N
1634936055.6,286047003.7,N
1634936075.5,286047001.7,N
1634936095.3,286047003.1,N
1634936115.1,286047004.0,Y
1634936135.9,286047000.9,P
1634936155.7,286047000.1,N
1634936175.5,286046999.8,N
1634936195.4,286047000.1,N
1634936215.2,286046999.8,N
1634936235.1,286046999.8,N
1634936236.0,286046999.8,N
1634936255.8,286046999.8,N
1634936275.6,286046999.7,N
1634936295.5,286047002.1,N
1634936315.3,286046999.8,N
1634936335.1,286047002.5,N
1634936355.9,286047000.2,N
1634936375.7,286047000.2,N
1634936395.6,286047000.1,N
